Willis, MI (48191)

11:42 PM EST on February 10, 2016 (GMT -0500)
Sumpter Township | | Change Station
CLOSE
Current Station
Personal Weather Station
Location: Belleville, MI
Elevation: 666 ft
Nearby Weather Stations

Elev 666 ft 42.13 °N, 83.54 °W | Updated 10 minutes ago

Clear
Clear
13.1 °F
Feels Like 13 °F
N
2.2
Wind Variable Wind from West

Today
High -- | Low -- °F
--% Chance of Precip.
Yesterday
High -- | Low -- °F
Precip. -- in
Pressure 30.04 in
Visibility 10.0 miles
Clouds Clear
Windchill 13 °F
Dew Point 8 °F
Humidity 78%
Rainfall 0.00 in
Snow Depth Not available.
7:37 AM 5:59 PM
Waxing Crescent, 9% visible
METAR KYIP 110353Z 33010KT 10SM CLR M09/M15 A3002 RMK AO2 SLP173 T10891150
Pressure 30.04 in
Visibility 10.0 miles
Clouds Clear
Windchill 13 °F
Dew Point 8 °F
Humidity 78%
Rainfall 0.00 in
Snow Depth Not available.
7:37 AM 5:59 PM
Waxing Crescent, 9% visible
METAR KYIP 110353Z 33010KT 10SM CLR M09/M15 A3002 RMK AO2 SLP173 T10891150

10-Day Weather Forecast

Almanac

Astronomy

Feb. 10, 2016 Rise Set
Actual Time
Civil Twilight
Nautical Twilight
Astronomical Twilight
Moon
Length of Visible Light
Length of Day
Tomorrow will be .
, % of the Moon is Illuminated

Today's Extremes

State Highs State Lows

Community

WunderPhotos

Upload Photos

1,892,015 photos uploaded!

WunderBlog® & News

Nearby

Air Quality

  Air Quality AQ Index Pollutant
Not available.

Snow Depth

Station Depth Elevation

Earthquake Activity

City Distance Mag. Time & Date
Minimum magnitude displayed is 2.5.

Coastal Water Temperatures

Place Temperature

Stations

Nearby Weather Stations

Station Location Temp. Windchill Dew Point Humidity Wind Precip. Elev Updated Type
                   

Watches & Warnings

There are currently no watches in effect.